Time,TemperatureF,DewpointF,PressureIn,WindDirection,WindDirectionDegrees,WindSpeedMPH,WindSpeedGustMPH,Humidity,HourlyPrecipIn,Conditions,Clouds,dailyrainin,SoftwareType,DateUTC
2013-01-18 00:01:00,18.9,12.3,30.18,WNW,297,4.0,4.0,75,0.00,,,0.00,WeatherDisplay:10.37,2013-01-18 05:01:00,
2013-01-18 00:04:00,18.9,12.3,30.18,SW,226,3.5,3.5,75,0.00,,,0.00,WeatherDisplay:10.37,2013-01-18 05:04:00,
2013-01-18 00:09:00,18.9,12.3,30.18,ESE,115,2.3,2.3,75,0.00,,,0.00,WeatherDisplay:10.37,2013-01-18 05:09:00,
2013-01-18 00:14:00,18.8,12.2,30.19,ENE,72,0.0,0.0,75,0.00,,,0.00,WeatherDisplay:10.37,2013-01-18 05:14:00,
2013-01-18 00:19:00,18.8,12.2,30.20,WNW,300,2.3,2.3,75,0.00,,,0.00,WeatherDisplay:10.37,2013-01-18 05:19:00,
2013-01-18 00:24:00,18.9,12.6,30.19,West,274,3.5,3.5,76,0.00,,,0.00,WeatherDisplay:10.37,2013-01-18 05:24:00,
2013-01-18 00:29:00,18.9,12.3,30.19,ENE,67,1.1,1.1,75,0.00,,,0.00,WeatherDisplay:10.37,2013-01-18 05:29:00,
2013-01-18 00:34:00,18.9,12.0,30.20,NNE,15,2.3,2.3,74,0.00,,,0.00,WeatherDisplay:10.37,2013-01-18 05:34:00,
2013-01-18 00:39:00,19.0,12.7,30.20,NE,39,0.0,0.1,76,0.00,,,0.00,WeatherDisplay:10.37,2013-01-18 05:39:00,
2013-01-18 00:44:00,19.0,12.4,30.20,NNW,337,1.1,1.1,75,0.00,,,0.00,WeatherDisplay:10.37,2013-01-18 05:44:00,
2013-01-18 00:49:00,19.0,12.7,30.20,North,359,0.0,0.0,76,0.00,,,0.00,WeatherDisplay:10.37,2013-01-18 05:49:00,
2013-01-18 00:54:00,18.9,12.9,30.20,ESE,114,2.3,2.3,77,0.00,,,0.00,WeatherDisplay:10.37,2013-01-18 05:54:00,
2013-01-18 00:59:00,18.9,13.7,30.20,SSW,195,0.0,0.0,80,0.00,,,0.00,WeatherDisplay:10.37,2013-01-18 05:59:00,
2013-01-18 01:04:00,18.9,14.0,30.20,West,270,2.3,2.3,81,0.00,,,0.00,WeatherDisplay:10.37,2013-01-18 06:04:00,
2013-01-18 01:09:00,18.8,14.2,30.20,NNE,33,2.3,2.3,82,0.00,,,0.00,WeatherDisplay:10.37,2013-01-18 06:09:00,
2013-01-18 01:14:00,18.6,14.3,30.20,ESE,122,0.0,0.1,83,0.00,,,0.00,WeatherDisplay:10.37,2013-01-18 06:14:00,
2013-01-18 01:19:00,18.5,14.2,30.21,NE,53,1.0,1.0,83,0.00,,,0.00,WeatherDisplay:10.37,2013-01-18 06:19:00,
2013-01-18 01:24:00,18.4,14.4,30.21,SW,228,2.3,2.3,84,0.00,,,0.00,WeatherDisplay:10.37,2013-01-18 06:24:00,
2013-01-18 01:29:00,18.4,14.6,30.21,WSW,249,1.1,1.1,85,0.00,,,0.00,WeatherDisplay:10.37,2013-01-18 06:29:00,
2013-01-18 01:34:00,18.3,14.5,30.22,WNW,301,3.5,3.5,85,0.00,,,0.00,WeatherDisplay:10.37,2013-01-18 06:34:00,
2013-01-18 01:39:00,18.3,14.8,30.22,SE,141,0.0,0.0,86,0.00,,,0.00,WeatherDisplay:10.37,2013-01-18 06:39:00,
2013-01-18 01:44:00,18.2,14.7,30.22,North,356,1.1,0.0,86,0.00,,,0.00,WeatherDisplay:10.37,2013-01-18 06:44:00,
2013-01-18 01:49:00,18.3,14.8,30.22,NNE,25,2.3,2.3,86,0.00,,,0.00,WeatherDisplay:10.37,2013-01-18 06:49:00,
2013-01-18 01:54:00,18.3,14.8,30.23,West,264,0.0,0.0,86,0.00,,,0.00,WeatherDisplay:10.37,2013-01-18 06:54:00,
2013-01-18 01:59:00,18.3,15.1,30.23,ENE,76,0.0,0.0,87,0.00,,,0.00,WeatherDisplay:10.37,2013-01-18 06:59:00,
2013-01-18 02:04:00,18.2,15.0,30.24,East,81,3.5,3.5,87,0.00,CLR,,0.00,WeatherDisplay:10.37,2013-01-18 07:04:00,
2013-01-18 02:09:00,18.1,14.9,30.24,NW,309,1.1,1.1,87,0.00,CLR,,0.00,WeatherDisplay:10.37,2013-01-18 07:09:00,
2013-01-18 02:14:00,18.1,14.9,30.24,ENE,71,2.3,2.3,87,0.00,CLR,,0.00,WeatherDisplay:10.37,2013-01-18 07:14:00,
2013-01-18 02:19:00,17.9,14.7,30.25,NE,53,3.5,3.5,87,0.00,CLR,,0.00,WeatherDisplay:10.37,2013-01-18 07:19:00,
2013-01-18 02:24:00,17.8,14.8,30.25,NE,39,2.0,2.0,88,0.00,CLR,,0.00,WeatherDisplay:10.37,2013-01-18 07:24:00,
2013-01-18 02:29:00,17.7,14.5,30.25,NE,43,2.3,2.3,87,0.00,CLR,,0.00,WeatherDisplay:10.37,2013-01-18 07:29:00,
2013-01-18 02:34:00,17.8,14.8,30.26,NW,325,1.1,1.1,88,0.00,CLR,,0.00,WeatherDisplay:10.37,2013-01-18 07:34:00,
2013-01-18 02:39:00,17.7,14.8,30.26,ENE,68,0.0,0.0,88,0.00,CLR,,0.00,WeatherDisplay:10.37,2013-01-18 07:39:00,
2013-01-18 02:44:00,17.7,14.8,30.26,NNE,32,1.1,1.1,88,0.00,CLR,,0.00,WeatherDisplay:10.37,2013-01-18 07:44:00,
2013-01-18 02:49:00,17.7,14.8,30.27,North,8,1.1,1.1,88,0.00,CLR,,0.00,WeatherDisplay:10.37,2013-01-18 07:49:00,
2013-01-18 02:54:00,17.7,14.5,30.27,ENE,57,2.3,2.3,87,0.00,CLR,,0.00,WeatherDisplay:10.37,2013-01-18 07:54:00,
2013-01-18 02:59:00,17.7,14.8,30.27,East,82,1.1,0.0,88,0.00,CLR,,0.00,WeatherDisplay:10.37,2013-01-18 07:59:00,
2013-01-18 03:04:00,17.7,14.8,30.27,ENE,76,0.0,0.0,88,0.00,CLR,,0.00,WeatherDisplay:10.37,2013-01-18 08:04:00,
2013-01-18 03:09:00,17.7,14.5,30.28,SSW,211,1.0,0.0,87,0.00,CLR,,0.00,WeatherDisplay:10.37,2013-01-18 08:09:00,
2013-01-18 03:14:00,17.6,14.4,30.28,East,83,0.0,0.0,87,0.00,CLR,,0.00,WeatherDisplay:10.37,2013-01-18 08:14:00,
2013-01-18 03:19:00,17.5,14.0,30.28,ENE,59,1.1,0.0,86,0.00,CLR,,0.00,WeatherDisplay:10.37,2013-01-18 08:19:00,
2013-01-18 03:24:00,17.3,13.6,30.28,NNE,16,2.3,0.0,85,0.00,CLR,,0.00,WeatherDisplay:10.37,2013-01-18 08:24:00,
2013-01-18 03:29:00,17.3,13.6,30.29,WNW,291,2.3,2.3,85,0.00,CLR,,0.00,WeatherDisplay:10.37,2013-01-18 08:29:00,
2013-01-18 03:34:00,17.2,13.7,30.29,NNW,342,0.0,0.0,86,0.00,CLR,,0.00,WeatherDisplay:10.37,2013-01-18 08:34:00,
2013-01-18 03:39:00,17.2,13.7,30.29,West,262,0.0,0.0,86,0.00,CLR,,0.00,WeatherDisplay:10.37,2013-01-18 08:39:00,
2013-01-18 03:44:00,17.2,13.7,30.29,SW,224,0.0,0.0,86,0.00,CLR,,0.00,WeatherDisplay:10.37,2013-01-18 08:44:00,
2013-01-18 03:49:00,17.1,13.6,30.29,SW,224,0.0,0.0,86,0.00,CLR,,0.00,WeatherDisplay:10.37,2013-01-18 08:49:00,
2013-01-18 03:54:00,17.1,13.6,30.28,ENE,65,0.0,0.0,86,0.00,CLR,,0.00,WeatherDisplay:10.37,2013-01-18 08:54:00,
2013-01-18 03:59:00,17.1,13.4,30.29,NNW,347,1.1,1.1,85,0.00,CLR,,0.00,WeatherDisplay:10.37,2013-01-18 08:59:00,
2013-01-18 04:04:00,17.0,13.3,30.29,NNE,23,1.1,1.1,85,0.00,CLR,,0.00,WeatherDisplay:10.37,2013-01-18 09:04:00,
2013-01-18 04:09:00,17.1,13.6,30.29,East,80,0.0,0.0,86,0.00,CLR,,0.00,WeatherDisplay:10.37,2013-01-18 09:09:00,
2013-01-18 04:14:00,17.0,13.3,30.29,ENE,77,1.1,1.1,85,0.00,CLR,,0.00,WeatherDisplay:10.37,2013-01-18 09:14:00,
2013-01-18 04:19:00,16.9,13.2,30.30,West,278,0.0,0.0,85,0.00,CLR,,0.00,WeatherDisplay:10.37,2013-01-18 09:19:00,
2013-01-18 04:24:00,16.8,13.1,30.30,East,84,0.0,0.0,85,0.00,CLR,,0.00,WeatherDisplay:10.37,2013-01-18 09:24:00,
2013-01-18 04:29:00,16.9,13.4,30.30,South,169,0.0,0.0,86,0.00,CLR,,0.00,WeatherDisplay:10.37,2013-01-18 09:29:00,
2013-01-18 04:34:00,16.9,13.4,30.30,South,170,0.0,0.0,86,0.00,CLR,,0.00,WeatherDisplay:10.37,2013-01-18 09:34:00,
2013-01-18 04:39:00,16.8,13.1,30.31,WSW,239,1.1,1.1,85,0.00,CLR,,0.00,WeatherDisplay:10.37,2013-01-18 09:39:00,
2013-01-18 04:44:00,16.7,13.0,30.31,WNW,283,2.3,2.3,85,0.00,CLR,,0.00,WeatherDisplay:10.37,2013-01-18 09:44:00,
2013-01-18 04:49:00,16.5,13.0,30.32,West,280,0.0,0.1,86,0.00,CLR,,0.00,WeatherDisplay:10.37,2013-01-18 09:49:00,
2013-01-18 04:54:00,16.2,12.7,30.32,West,280,0.0,0.0,86,0.00,CLR,,0.00,WeatherDisplay:10.37,2013-01-18 09:54:00,
2013-01-18 04:59:00,16.0,12.6,30.32,West,280,0.0,0.0,86,0.00,CLR,,0.00,WeatherDisplay:10.37,2013-01-18 09:59:00,
2013-01-18 05:04:00,15.7,12.3,30.32,West,280,0.0,0.0,86,0.00,CLR,,0.00,WeatherDisplay:10.37,2013-01-18 10:04:00,
2013-01-18 05:09:00,15.5,12.1,30.32,West,280,0.0,0.0,86,0.00,CLR,,0.00,WeatherDisplay:10.37,2013-01-18 10:09:00,
2013-01-18 05:14:00,15.1,11.7,30.32,West,280,0.0,0.0,86,0.00,CLR,,0.00,WeatherDisplay:10.37,2013-01-18 10:14:00,
2013-01-18 05:19:00,14.7,11.5,30.32,West,281,0.0,0.0,87,0.00,CLR,,0.00,WeatherDisplay:10.37,2013-01-18 10:19:00,
2013-01-18 05:24:00,14.3,11.1,30.33,West,280,0.0,0.0,87,0.00,CLR,,0.00,WeatherDisplay:10.37,2013-01-18 10:24:00,
2013-01-18 05:29:00,14.0,10.8,30.33,West,280,0.0,0.0,87,0.00,CLR,,0.00,WeatherDisplay:10.37,2013-01-18 10:29:00,
2013-01-18 05:34:00,13.6,10.5,30.33,West,280,0.0,0.0,87,0.00,CLR,,0.00,WeatherDisplay:10.37,2013-01-18 10:34:00,
2013-01-18 05:39:00,13.3,10.4,30.34,West,280,0.0,0.0,88,0.00,CLR,,0.00,WeatherDisplay:10.37,2013-01-18 10:39:00,
2013-01-18 05:44:00,13.4,10.8,30.34,WSW,250,0.0,0.0,89,0.00,CLR,,0.00,WeatherDisplay:10.37,2013-01-18 10:44:00,
2013-01-18 05:49:00,13.5,10.9,30.35,WSW,250,0.0,0.0,89,0.00,CLR,,0.00,WeatherDisplay:10.37,2013-01-18 10:49:00,
2013-01-18 05:54:00,13.7,11.1,30.35,WSW,250,0.0,0.0,89,0.00,CLR,,0.00,WeatherDisplay:10.37,2013-01-18 10:54:00,
2013-01-18 05:59:00,13.8,11.2,30.36,West,262,0.0,0.0,89,0.00,CLR,,0.00,WeatherDisplay:10.37,2013-01-18 10:59:00,
2013-01-18 06:04:00,13.9,11.3,30.36,West,262,1.1,0.0,89,0.00,CLR,,0.00,WeatherDisplay:10.37,2013-01-18 11:04:00,
2013-01-18 06:09:00,13.8,11.2,30.36,West,262,0.0,0.0,89,0.00,CLR,,0.00,WeatherDisplay:10.37,2013-01-18 11:09:00,
2013-01-18 06:14:00,13.4,10.8,30.36,West,262,0.0,0.0,89,0.00,CLR,,0.00,WeatherDisplay:10.37,2013-01-18 11:14:00,
2013-01-18 06:19:00,13.2,10.6,30.37,West,262,0.0,0.0,89,0.00,CLR,,0.00,WeatherDisplay:10.37,2013-01-18 11:19:00,
2013-01-18 06:24:00,12.9,10.3,30.37,West,262,0.0,0.0,89,0.00,CLR,,0.00,WeatherDisplay:10.37,2013-01-18 11:24:00,
2013-01-18 06:29:00,12.7,10.3,30.37,West,262,0.0,0.0,90,0.00,CLR,,0.00,WeatherDisplay:10.37,2013-01-18 11:29:00,
2013-01-18 06:34:00,12.5,10.1,30.37,West,262,0.0,0.0,90,0.00,CLR,,0.00,WeatherDisplay:10.37,2013-01-18 11:34:00,
2013-01-18 06:39:00,12.3,9.9,30.38,West,262,0.0,0.0,90,0.00,CLR,,0.00,WeatherDisplay:10.37,2013-01-18 11:39:00,
2013-01-18 06:44:00,12.1,9.7,30.38,West,262,0.0,0.0,90,0.00,CLR,,0.00,WeatherDisplay:10.37,2013-01-18 11:44:00,
2013-01-18 06:49:00,11.7,9.3,30.38,West,262,0.0,0.0,90,0.00,CLR,,0.00,WeatherDisplay:10.37,2013-01-18 11:49:00,
2013-01-18 06:54:00,11.4,9.0,30.38,West,262,0.0,0.0,90,0.00,CLR,,0.00,WeatherDisplay:10.37,2013-01-18 11:54:00,
2013-01-18 06:59:00,11.2,9.1,30.38,West,262,0.0,0.0,91,0.00,CLR,,0.00,WeatherDisplay:10.37,2013-01-18 11:59:00,
2013-01-18 07:04:00,11.2,9.1,30.38,West,261,0.0,0.0,91,0.00,CLR,,0.00,WeatherDisplay:10.37,2013-01-18 12:04:00,
2013-01-18 07:09:00,11.2,9.1,30.38,West,262,0.0,0.0,91,0.00,CLR,,0.00,WeatherDisplay:10.37,2013-01-18 12:09:00,
2013-01-18 07:14:00,11.5,9.4,30.39,West,281,0.0,0.0,91,0.00,CLR,,0.00,WeatherDisplay:10.37,2013-01-18 12:14:00,
2013-01-18 07:19:00,11.8,9.7,30.39,West,260,0.0,0.0,91,0.00,CLR,,0.00,WeatherDisplay:10.37,2013-01-18 12:19:00,
2013-01-18 07:24:00,11.8,9.9,30.39,West,260,0.0,0.0,92,0.00,CLR,,0.00,WeatherDisplay:10.37,2013-01-18 12:24:00,
2013-01-18 07:29:00,11.8,9.7,30.39,West,259,0.0,0.0,91,0.00,CLR,,0.00,WeatherDisplay:10.37,2013-01-18 12:29:00,
2013-01-18 07:34:00,11.9,9.8,30.39,West,260,0.0,0.0,91,0.00,CLR,,0.00,WeatherDisplay:10.37,2013-01-18 12:34:00,
2013-01-18 07:39:00,12.0,9.9,30.39,East,86,1.1,0.0,91,0.00,CLR,,0.00,WeatherDisplay:10.37,2013-01-18 12:39:00,
2013-01-18 07:44:00,12.1,10.0,30.40,East,86,0.0,0.0,91,0.00,CLR,,0.00,WeatherDisplay:10.37,2013-01-18 12:44:00,
2013-01-18 07:49:00,12.4,10.5,30.40,East,86,0.0,0.0,92,0.00,CLR,,0.00,WeatherDisplay:10.37,2013-01-18 12:49:00,
2013-01-18 07:54:00,12.8,10.9,30.40,SSE,152,0.0,0.0,92,0.00,CLR,,0.00,WeatherDisplay:10.37,2013-01-18 12:54:00,
2013-01-18 07:59:00,13.0,11.1,30.40,SSE,153,0.0,0.0,92,0.00,CLR,,0.00,WeatherDisplay:10.37,2013-01-18 12:59:00,
2013-01-18 08:04:00,13.3,11.4,30.40,East,93,0.0,0.0,92,0.00,CLR,,0.00,WeatherDisplay:10.37,2013-01-18 13:04:00,
2013-01-18 08:09:00,13.6,11.7,30.40,East,88,0.0,0.0,92,0.00,CLR,,0.00,WeatherDisplay:10.37,2013-01-18 13:09:00,
2013-01-18 08:14:00,13.9,11.8,30.41,East,88,0.0,0.0,91,0.00,CLR,,0.00,WeatherDisplay:10.37,2013-01-18 13:14:00,
2013-01-18 08:19:00,14.1,12.0,30.41,East,88,0.0,0.0,91,0.00,CLR,,0.00,WeatherDisplay:10.37,2013-01-18 13:19:00,
2013-01-18 08:24:00,14.4,12.3,30.40,South,179,0.0,0.0,91,0.00,CLR,,0.00,WeatherDisplay:10.37,2013-01-18 13:24:00,
2013-01-18 08:29:00,14.8,12.6,30.40,SW,232,2.0,2.0,91,0.00,CLR,,0.00,WeatherDisplay:10.37,2013-01-18 13:29:00,
2013-01-18 08:34:00,15.3,13.1,30.41,SW,229,2.0,2.0,91,0.00,CLR,,0.00,WeatherDisplay:10.37,2013-01-18 13:34:00,
2013-01-18 08:39:00,15.6,13.2,30.41,SSE,167,1.1,1.1,90,0.00,CLR,,0.00,WeatherDisplay:10.37,2013-01-18 13:39:00,
2013-01-18 08:44:00,15.9,13.2,30.41,West,277,3.5,3.5,89,0.00,CLR,,0.00,WeatherDisplay:10.37,2013-01-18 13:44:00,
2013-01-18 08:49:00,16.0,13.1,30.41,West,274,1.1,1.1,88,0.00,CLR,,0.00,WeatherDisplay:10.37,2013-01-18 13:49:00,
2013-01-18 08:54:00,16.3,13.4,30.41,SW,235,1.1,1.1,88,0.00,CLR,,0.00,WeatherDisplay:10.37,2013-01-18 13:54:00,
2013-01-18 08:59:00,16.6,13.4,30.42,West,259,2.3,2.3,87,0.00,CLR,,0.00,WeatherDisplay:10.37,2013-01-18 13:59:00,
2013-01-18 09:04:00,17.0,13.5,30.42,WSW,250,5.8,5.8,86,0.00,CLR,,0.00,WeatherDisplay:10.37,2013-01-18 14:04:00,
2013-01-18 09:10:00,17.3,13.8,30.42,WNW,288,0.0,0.0,86,0.00,CLR,,0.00,WeatherDisplay:10.37,2013-01-18 14:10:00,
2013-01-18 09:15:00,17.5,13.8,30.42,SSW,208,1.1,1.1,85,0.00,CLR,,0.00,WeatherDisplay:10.37,2013-01-18 14:15:00,
2013-01-18 09:20:00,18.1,14.4,30.42,WNW,283,3.5,3.5,85,0.00,CLR,,0.00,WeatherDisplay:10.37,2013-01-18 14:20:00,
2013-01-18 09:25:00,18.4,14.4,30.42,WNW,288,3.5,3.5,84,0.00,CLR,,0.00,WeatherDisplay:10.37,2013-01-18 14:25:00,
2013-01-18 09:30:00,18.6,14.6,30.42,SSW,193,4.0,4.0,84,0.00,CLR,,0.00,WeatherDisplay:10.37,2013-01-18 14:30:00,
2013-01-18 09:35:00,18.9,14.9,30.43,SW,231,2.3,2.3,84,0.00,CLR,,0.00,WeatherDisplay:10.37,2013-01-18 14:35:00,
2013-01-18 09:40:00,19.2,15.2,30.43,WNW,285,2.3,2.3,84,0.00,CLR,,0.00,WeatherDisplay:10.37,2013-01-18 14:40:00,
2013-01-18 09:45:00,19.5,15.5,30.43,West,266,2.3,2.3,84,0.00,CLR,,0.00,WeatherDisplay:10.37,2013-01-18 14:45:00,
2013-01-18 09:50:00,19.4,15.6,30.44,ENE,65,2.3,2.3,85,0.00,CLR,,0.00,WeatherDisplay:10.37,2013-01-18 14:50:00,
2013-01-18 09:55:00,19.4,15.9,30.44,West,266,2.3,2.3,86,0.00,CLR,,0.00,WeatherDisplay:10.37,2013-01-18 14:55:00,
2013-01-18 10:00:00,19.4,15.6,30.44,NNE,26,3.5,3.5,85,0.00,CLR,,0.00,WeatherDisplay:10.37,2013-01-18 15:00:00,
2013-01-18 10:05:00,19.4,16.2,30.44,WNW,302,5.8,5.8,87,0.00,CLR,,0.00,WeatherDisplay:10.37,2013-01-18 15:05:00,
2013-01-18 10:10:00,19.1,16.4,30.45,West,269,3.5,3.5,89,0.00,CLR,,0.00,WeatherDisplay:10.37,2013-01-18 15:10:00,
2013-01-18 10:15:00,18.9,16.5,30.45,ENE,71,2.3,2.3,90,0.00,CLR,,0.00,WeatherDisplay:10.37,2013-01-18 15:15:00,
2013-01-18 10:20:00,18.9,16.5,30.45,NNW,335,3.5,3.5,90,0.00,CLR,,0.00,WeatherDisplay:10.37,2013-01-18 15:20:00,
2013-01-18 10:25:00,19.1,16.7,30.45,WSW,253,4.6,4.6,90,0.00,CLR,,0.00,WeatherDisplay:10.37,2013-01-18 15:25:00,
2013-01-18 10:30:00,19.2,16.5,30.45,WSW,256,6.9,6.9,89,0.00,CLR,,0.00,WeatherDisplay:10.37,2013-01-18 15:30:00,
2013-01-18 10:35:00,19.4,16.9,30.45,NE,41,1.1,1.1,90,0.00,CLR,,0.00,WeatherDisplay:10.37,2013-01-18 15:35:00,
2013-01-18 10:40:00,19.8,17.3,30.44,West,277,2.3,2.3,90,0.00,CLR,,0.00,WeatherDisplay:10.37,2013-01-18 15:40:00,
2013-01-18 10:45:00,20.3,17.3,30.44,West,281,3.5,3.5,88,0.00,CLR,,0.00,WeatherDisplay:10.37,2013-01-18 15:45:00,
2013-01-18 10:50:00,20.6,17.1,30.44,NNW,333,9.2,9.2,86,0.00,CLR,,0.00,WeatherDisplay:10.37,2013-01-18 15:50:00,
2013-01-18 10:55:00,20.9,16.5,30.44,West,266,2.3,2.3,83,0.00,CLR,,0.00,WeatherDisplay:10.37,2013-01-18 15:55:00,
2013-01-18 11:00:00,21.2,16.3,30.44,WNW,287,8.1,8.1,81,0.00,CLR,,0.00,WeatherDisplay:10.37,2013-01-18 16:00:00,
2013-01-18 11:05:00,21.7,16.2,30.44,West,267,4.6,4.6,79,0.00,CLR,,0.00,WeatherDisplay:10.37,2013-01-18 16:05:00,
2013-01-18 11:10:00,22.0,15.9,30.44,WSW,257,3.5,3.5,77,0.00,CLR,,0.00,WeatherDisplay:10.37,2013-01-18 16:10:00,
2013-01-18 11:15:00,21.9,15.2,30.43,WNW,288,4.6,4.6,75,0.00,CLR,,0.00,WeatherDisplay:10.37,2013-01-18 16:15:00,
2013-01-18 11:20:00,22.5,16.1,30.43,SE,138,8.1,8.1,76,0.00,CLR,,0.00,WeatherDisplay:10.37,2013-01-18 16:20:00,
2013-01-18 11:25:00,22.7,14.7,30.43,WNW,295,6.9,6.9,71,0.00,CLR,,0.00,WeatherDisplay:10.37,2013-01-18 16:25:00,
2013-01-18 11:30:00,23.0,15.0,30.43,WNW,295,6.9,6.9,71,0.00,CLR,,0.00,WeatherDisplay:10.37,2013-01-18 16:30:00,
2013-01-18 11:35:00,23.5,15.5,30.43,WSW,252,5.0,5.0,71,0.00,CLR,,0.00,WeatherDisplay:10.37,2013-01-18 16:35:00,
2013-01-18 11:40:00,23.6,15.2,30.42,West,274,3.5,3.5,70,0.00,CLR,,0.00,WeatherDisplay:10.37,2013-01-18 16:40:00,
2013-01-18 11:45:00,23.6,14.2,30.42,WNW,288,8.1,8.1,67,0.00,CLR,,0.00,WeatherDisplay:10.37,2013-01-18 16:45:00,
2013-01-18 11:50:00,23.5,13.8,30.42,NW,321,6.9,6.9,66,0.00,CLR,,0.00,WeatherDisplay:10.37,2013-01-18 16:50:00,
2013-01-18 11:55:00,23.6,13.5,30.42,NW,326,8.1,8.1,65,0.00,CLR,,0.00,WeatherDisplay:10.37,2013-01-18 16:55:00,
2013-01-18 12:00:00,23.4,12.6,30.41,West,262,3.5,3.5,63,0.00,CLR,,0.00,WeatherDisplay:10.37,2013-01-18 17:00:00,
2013-01-18 12:05:00,23.5,13.1,30.41,West,265,4.0,4.0,64,0.00,CLR,,0.00,WeatherDisplay:10.37,2013-01-18 17:05:00,
2013-01-18 12:10:00,23.6,12.1,30.41,WNW,300,5.8,5.8,61,0.00,CLR,,0.00,WeatherDisplay:10.37,2013-01-18 17:10:00,
2013-01-18 12:15:00,23.7,11.8,30.41,West,281,5.0,5.0,60,0.00,CLR,,0.00,WeatherDisplay:10.37,2013-01-18 17:15:00,
2013-01-18 12:20:00,24.0,12.5,30.41,SW,226,2.3,2.3,61,0.00,CLR,,0.00,WeatherDisplay:10.37,2013-01-18 17:20:00,
2013-01-18 12:25:00,24.1,11.0,30.41,West,264,3.5,3.5,57,0.00,CLR,,0.00,WeatherDisplay:10.37,2013-01-18 17:25:00,
2013-01-18 12:30:00,24.1,9.8,30.41,West,262,8.1,8.1,54,0.00,CLR,,0.00,WeatherDisplay:10.37,2013-01-18 17:30:00,
2013-01-18 12:35:00,24.3,10.4,30.41,WNW,288,5.0,5.0,55,0.00,CLR,,0.00,WeatherDisplay:10.37,2013-01-18 17:35:00,
2013-01-18 12:40:00,24.5,9.4,30.41,WSW,240,2.3,2.3,52,0.00,CLR,,0.00,WeatherDisplay:10.37,2013-01-18 17:40:00,
2013-01-18 12:45:00,24.5,10.2,30.41,WNW,299,10.4,10.4,54,0.00,CLR,,0.00,WeatherDisplay:10.37,2013-01-18 17:45:00,
2013-01-18 12:50:00,24.2,9.1,30.41,SW,231,6.9,6.9,52,0.00,CLR,,0.00,WeatherDisplay:10.37,2013-01-18 17:50:00,
2013-01-18 12:56:00,24.2,9.5,30.41,West,267,5.8,5.8,53,0.00,CLR,,0.00,WeatherDisplay:10.37,2013-01-18 17:56:00,
2013-01-18 13:01:00,24.2,9.9,30.41,NNW,340,5.8,5.8,54,0.00,CLR,,0.00,WeatherDisplay:10.37,2013-01-18 18:01:00,
2013-01-18 13:06:00,24.3,10.4,30.40,West,280,2.3,2.3,55,0.00,CLR,,0.00,WeatherDisplay:10.37,2013-01-18 18:06:00,
2013-01-18 13:11:00,24.4,9.3,30.40,WSW,252,6.9,6.9,52,0.00,CLR,,0.00,WeatherDisplay:10.37,2013-01-18 18:11:00,
2013-01-18 13:16:00,24.3,8.7,30.41,SSW,198,4.6,4.6,51,0.00,CLR,,0.00,WeatherDisplay:10.37,2013-01-18 18:16:00,
2013-01-18 13:21:00,24.3,9.2,30.41,SW,215,3.5,3.5,52,0.00,CLR,,0.00,WeatherDisplay:10.37,2013-01-18 18:21:00,
2013-01-18 13:26:00,24.3,8.7,30.41,SW,231,12.7,12.7,51,0.00,CLR,,0.00,WeatherDisplay:10.37,2013-01-18 18:26:00,
2013-01-18 13:31:00,24.0,8.5,30.41,WNW,292,5.0,5.0,51,0.00,CLR,,0.00,WeatherDisplay:10.37,2013-01-18 18:31:00,
2013-01-18 13:36:00,24.0,7.6,30.41,WNW,285,3.5,3.5,49,0.00,CLR,,0.00,WeatherDisplay:10.37,2013-01-18 18:36:00,
2013-01-18 13:41:00,24.0,8.5,30.41,East,93,3.5,3.5,51,0.00,CLR,,0.00,WeatherDisplay:10.37,2013-01-18 18:41:00,
2013-01-18 13:46:00,24.3,8.3,30.41,WSW,250,3.5,3.5,50,0.00,CLR,,0.00,WeatherDisplay:10.37,2013-01-18 18:46:00,
2013-01-18 13:51:00,24.2,8.2,30.41,NW,312,8.1,8.1,50,0.00,CLR,,0.00,WeatherDisplay:10.37,2013-01-18 18:51:00,
2013-01-18 13:56:00,24.1,7.2,30.40,WSW,239,2.3,2.3,48,0.00,CLR,,0.00,WeatherDisplay:10.37,2013-01-18 18:56:00,
2013-01-18 14:01:00,24.0,8.9,30.40,West,263,3.5,3.5,52,0.00,CLR,,0.00,WeatherDisplay:10.37,2013-01-18 19:01:00,
2013-01-18 14:06:00,23.7,7.7,30.40,WSW,252,4.0,4.0,50,0.00,CLR,,0.00,WeatherDisplay:10.37,2013-01-18 19:06:00,
2013-01-18 14:11:00,23.6,7.7,30.40,WSW,249,5.8,5.8,50,0.00,CLR,,0.00,WeatherDisplay:10.37,2013-01-18 19:11:00,
2013-01-18 14:16:00,23.6,8.5,30.40,SW,234,3.5,3.5,52,0.00,CLR,,0.00,WeatherDisplay:10.37,2013-01-18 19:16:00,
2013-01-18 14:21:00,23.6,8.5,30.40,SW,233,5.8,5.8,52,0.00,CLR,,0.00,WeatherDisplay:10.37,2013-01-18 19:21:00,
2013-01-18 14:26:00,23.7,8.6,30.40,SSW,207,2.3,2.3,52,0.00,CLR,,0.00,WeatherDisplay:10.37,2013-01-18 19:26:00,
2013-01-18 14:31:00,23.5,8.9,30.40,SW,219,3.5,3.5,53,0.00,CLR,,0.00,WeatherDisplay:10.37,2013-01-18 19:31:00,
2013-01-18 14:36:00,23.4,7.9,30.39,WNW,292,11.5,11.5,51,0.00,CLR,,0.00,WeatherDisplay:10.37,2013-01-18 19:36:00,
2013-01-18 14:41:00,23.3,8.2,30.39,SSW,193,1.1,1.4,52,0.00,CLR,,0.00,WeatherDisplay:10.37,2013-01-18 19:41:00,
2013-01-18 14:46:00,23.4,8.3,30.38,WSW,243,3.5,3.5,52,0.00,CLR,,0.00,WeatherDisplay:10.37,2013-01-18 19:46:00,
2013-01-18 14:51:00,23.3,8.2,30.39,SW,229,2.3,2.3,52,0.00,CLR,,0.00,WeatherDisplay:10.37,2013-01-18 19:51:00,
2013-01-18 14:56:00,23.3,8.7,30.39,SSW,197,1.1,1.1,53,0.00,CLR,,0.00,WeatherDisplay:10.37,2013-01-18 19:56:00,
2013-01-18 15:01:00,23.2,9.0,30.39,West,280,3.5,3.5,54,0.00,CLR,,0.00,WeatherDisplay:10.37,2013-01-18 20:01:00,
2013-01-18 15:06:00,23.1,8.9,30.39,South,184,3.5,3.5,54,0.00,CLR,,0.00,WeatherDisplay:10.37,2013-01-18 20:06:00,
2013-01-18 15:11:00,23.1,9.3,30.39,SW,225,2.3,2.3,55,0.00,CLR,,0.00,WeatherDisplay:10.37,2013-01-18 20:11:00,
2013-01-18 15:16:00,23.0,8.8,30.39,SSW,200,5.8,5.8,54,0.00,CLR,,0.00,WeatherDisplay:10.37,2013-01-18 20:16:00,
2013-01-18 15:21:00,22.9,9.1,30.38,WSW,248,2.3,2.3,55,0.00,CLR,,0.00,WeatherDisplay:10.37,2013-01-18 20:21:00,
2013-01-18 15:26:00,23.1,10.1,30.38,South,179,2.3,2.3,57,0.00,CLR,,0.00,WeatherDisplay:10.37,2013-01-18 20:26:00,
2013-01-18 15:31:00,23.3,11.1,30.38,SW,226,1.1,1.1,59,0.00,CLR,,0.00,WeatherDisplay:10.37,2013-01-18 20:31:00,
2013-01-18 15:36:00,23.2,10.2,30.38,WNW,288,1.1,1.1,57,0.00,CLR,,0.00,WeatherDisplay:10.37,2013-01-18 20:36:00,
2013-01-18 15:41:00,23.1,10.9,30.38,WSW,245,5.8,5.8,59,0.00,CLR,,0.00,WeatherDisplay:10.37,2013-01-18 20:41:00,
2013-01-18 15:46:00,23.1,10.9,30.38,WSW,248,3.5,3.5,59,0.00,CLR,,0.00,WeatherDisplay:10.37,2013-01-18 20:46:00,
2013-01-18 15:51:00,23.1,10.9,30.37,SW,234,1.1,0.0,59,0.00,CLR,,0.00,WeatherDisplay:10.37,2013-01-18 20:51:00,
2013-01-18 15:56:00,23.0,11.2,30.37,SE,131,2.3,2.3,60,0.00,CLR,,0.00,WeatherDisplay:10.37,2013-01-18 20:56:00,
2013-01-18 16:01:00,22.9,11.4,30.37,SE,125,3.5,3.5,61,0.00,CLR,,0.00,WeatherDisplay:10.37,2013-01-18 21:01:00,
2013-01-18 16:06:00,22.8,11.3,30.37,WSW,240,4.0,4.0,61,0.00,CLR,,0.00,WeatherDisplay:10.37,2013-01-18 21:06:00,
2013-01-18 16:12:00,22.6,11.2,30.36,SE,144,1.1,1.1,61,0.00,CLR,,0.00,WeatherDisplay:10.37,2013-01-18 21:12:00,
2013-01-18 16:17:00,22.4,11.0,30.36,SSE,163,2.3,0.0,61,0.00,CLR,,0.00,WeatherDisplay:10.37,2013-01-18 21:17:00,
2013-01-18 16:22:00,22.3,11.6,30.36,South,190,0.0,0.1,63,0.00,CLR,,0.00,WeatherDisplay:10.37,2013-01-18 21:22:00,
2013-01-18 16:27:00,22.1,11.1,30.35,SSE,157,0.0,0.0,62,0.00,CLR,,0.00,WeatherDisplay:10.37,2013-01-18 21:27:00,
2013-01-18 16:32:00,21.9,11.2,30.36,SSE,157,0.0,0.0,63,0.00,CLR,,0.00,WeatherDisplay:10.37,2013-01-18 21:32:00,
2013-01-18 16:37:00,21.7,11.7,30.36,SW,224,2.3,2.3,65,0.00,CLR,,0.00,WeatherDisplay:10.37,2013-01-18 21:37:00,
2013-01-18 16:42:00,21.6,11.3,30.35,South,177,0.0,0.0,64,0.00,CLR,,0.00,WeatherDisplay:10.37,2013-01-18 21:42:00,
2013-01-18 16:47:00,21.5,11.2,30.35,SSW,195,0.0,0.3,64,0.00,CLR,,0.00,WeatherDisplay:10.37,2013-01-18 21:47:00,
2013-01-18 16:52:00,21.5,11.5,30.35,SW,222,1.1,0.0,65,0.00,CLR,,0.00,WeatherDisplay:10.37,2013-01-18 21:52:00,
2013-01-18 16:57:00,21.5,11.5,30.35,South,185,1.0,0.0,65,0.00,CLR,,0.00,WeatherDisplay:10.37,2013-01-18 21:57:00,
2013-01-18 17:02:00,21.5,11.9,30.34,SE,145,0.0,0.0,66,0.00,CLR,,0.00,WeatherDisplay:10.37,2013-01-18 22:02:00,
2013-01-18 17:07:00,21.6,12.0,30.34,SSW,201,2.3,2.3,66,0.00,CLR,,0.00,WeatherDisplay:10.37,2013-01-18 22:07:00,
2013-01-18 17:12:00,21.7,12.4,30.34,SE,129,0.0,0.0,67,0.00,CLR,,0.00,WeatherDisplay:10.37,2013-01-18 22:12:00,
2013-01-18 17:17:00,21.8,12.2,30.34,SE,131,0.0,0.3,66,0.00,CLR,,0.00,WeatherDisplay:10.37,2013-01-18 22:17:00,
2013-01-18 17:22:00,21.8,12.5,30.33,SE,129,0.0,0.0,67,0.00,CLR,,0.00,WeatherDisplay:10.37,2013-01-18 22:22:00,
2013-01-18 17:27:00,21.8,12.2,30.33,SE,132,0.0,0.0,66,0.00,CLR,,0.00,WeatherDisplay:10.37,2013-01-18 22:27:00,
2013-01-18 17:32:00,21.8,12.5,30.33,SE,137,0.0,0.0,67,0.00,CLR,,0.00,WeatherDisplay:10.37,2013-01-18 22:32:00,
2013-01-18 17:37:00,21.9,12.3,30.33,SE,140,0.0,0.0,66,0.00,,,0.00,WeatherDisplay:10.37,2013-01-18 22:37:00,
2013-01-18 17:42:00,21.8,12.2,30.33,SE,136,0.0,0.0,66,0.00,,,0.00,WeatherDisplay:10.37,2013-01-18 22:42:00,
2013-01-18 17:47:00,21.7,12.4,30.33,SE,135,0.0,0.0,67,0.00,,,0.00,WeatherDisplay:10.37,2013-01-18 22:47:00,
2013-01-18 17:52:00,21.7,12.4,30.33,SE,136,0.0,0.0,67,0.00,,,0.00,WeatherDisplay:10.37,2013-01-18 22:52:00,
2013-01-18 17:57:00,21.6,12.0,30.32,SE,135,0.0,0.0,66,0.00,,,0.00,WeatherDisplay:10.37,2013-01-18 22:57:00,
2013-01-18 18:02:00,21.5,12.6,30.32,SE,141,0.0,0.0,68,0.00,,,0.00,WeatherDisplay:10.37,2013-01-18 23:02:00,
2013-01-18 18:07:00,21.4,12.5,30.31,SE,141,0.0,0.0,68,0.00,,,0.00,WeatherDisplay:10.37,2013-01-18 23:07:00,
2013-01-18 18:12:00,21.4,12.5,30.32,SE,141,0.0,0.0,68,0.00,,,0.00,WeatherDisplay:10.37,2013-01-18 23:12:00,
2013-01-18 18:17:00,21.5,12.2,30.31,SSE,159,0.0,0.0,67,0.00,,,0.00,WeatherDisplay:10.37,2013-01-18 23:17:00,
2013-01-18 18:22:00,21.7,12.8,30.31,SSE,159,0.0,0.0,68,0.00,,,0.00,WeatherDisplay:10.37,2013-01-18 23:22:00,
2013-01-18 18:27:00,21.8,12.9,30.31,SSE,159,0.0,0.0,68,0.00,,,0.00,WeatherDisplay:10.37,2013-01-18 23:27:00,
2013-01-18 18:32:00,21.9,13.0,30.31,SSE,155,0.0,0.0,68,0.00,,,0.00,WeatherDisplay:10.37,2013-01-18 23:32:00,
2013-01-18 18:37:00,22.1,13.1,30.31,SE,129,0.0,0.0,68,0.00,,,0.00,WeatherDisplay:10.37,2013-01-18 23:37:00,
2013-01-18 18:42:00,22.2,13.2,30.30,SSE,152,0.0,0.0,68,0.00,,,0.00,WeatherDisplay:10.37,2013-01-18 23:42:00,
2013-01-18 18:47:00,22.4,13.8,30.30,ESE,114,0.0,0.0,69,0.00,,,0.00,WeatherDisplay:10.37,2013-01-18 23:47:00,
2013-01-18 18:53:00,22.4,13.8,30.31,ESE,115,0.0,0.0,69,0.00,,,0.00,WeatherDisplay:10.37,2013-01-18 23:53:00,
2013-01-18 18:58:00,22.6,14.0,30.30,South,169,0.0,0.0,69,0.00,,,0.00,WeatherDisplay:10.37,2013-01-18 23:58:00,
2013-01-18 19:03:00,22.9,13.6,30.30,SSE,165,0.0,0.1,67,0.00,,,0.00,WeatherDisplay:10.37,2013-01-19 00:03:00,
2013-01-18 19:08:00,23.2,13.5,30.30,SSE,163,1.1,1.1,66,0.00,,,0.00,WeatherDisplay:10.37,2013-01-19 00:08:00,
2013-01-18 19:13:00,23.5,13.8,30.30,SE,136,0.0,0.0,66,0.00,,,0.00,WeatherDisplay:10.37,2013-01-19 00:13:00,
2013-01-18 19:18:00,23.8,14.1,30.30,SE,145,0.0,0.1,66,0.00,,,0.00,WeatherDisplay:10.37,2013-01-19 00:18:00,
2013-01-18 19:23:00,24.0,14.3,30.29,ESE,112,1.1,1.1,66,0.00,,,0.00,WeatherDisplay:10.37,2013-01-19 00:23:00,
2013-01-18 19:28:00,24.0,13.9,30.29,SSW,203,1.1,1.1,65,0.00,,,0.00,WeatherDisplay:10.37,2013-01-19 00:28:00,
2013-01-18 19:33:00,24.2,13.8,30.29,SE,129,2.3,2.3,64,0.00,,,0.00,WeatherDisplay:10.37,2013-01-19 00:33:00,
2013-01-18 19:38:00,24.4,14.0,30.28,SSE,162,1.1,1.1,64,0.00,,,0.00,WeatherDisplay:10.37,2013-01-19 00:38:00,
2013-01-18 19:43:00,24.5,14.1,30.28,SW,229,2.0,2.0,64,0.00,,,0.00,WeatherDisplay:10.37,2013-01-19 00:43:00,
2013-01-18 19:48:00,24.7,14.2,30.28,SSE,160,1.1,1.1,64,0.00,,,0.00,WeatherDisplay:10.37,2013-01-19 00:48:00,
2013-01-18 19:53:00,24.8,14.3,30.27,SSW,208,1.1,1.1,64,0.00,,,0.00,WeatherDisplay:10.37,2013-01-19 00:53:00,
2013-01-18 19:58:00,25.0,13.8,30.27,SSE,161,1.1,1.1,62,0.00,,,0.00,WeatherDisplay:10.37,2013-01-19 00:58:00,
2013-01-18 20:03:00,25.2,13.6,30.26,South,183,3.5,3.5,61,0.00,,,0.00,WeatherDisplay:10.37,2013-01-19 01:03:00,
2013-01-18 20:08:00,25.3,13.7,30.26,SSE,148,3.5,3.5,61,0.00,,,0.00,WeatherDisplay:10.37,2013-01-19 01:08:00,
2013-01-18 20:14:00,25.5,14.3,30.26,SSW,204,2.3,2.3,62,0.00,,,0.00,WeatherDisplay:10.37,2013-01-19 01:14:00,
2013-01-18 20:19:00,25.6,13.2,30.25,SSE,153,1.1,0.0,59,0.00,,,0.00,WeatherDisplay:10.37,2013-01-19 01:19:00,
2013-01-18 20:24:00,25.7,14.1,30.24,SSE,158,2.3,2.3,61,0.00,,,0.00,WeatherDisplay:10.37,2013-01-19 01:24:00,
2013-01-18 20:29:00,25.9,13.5,30.24,WSW,239,2.3,2.3,59,0.00,,,0.00,WeatherDisplay:10.37,2013-01-19 01:29:00,
2013-01-18 20:34:00,26.0,13.6,30.23,South,177,5.8,5.8,59,0.00,,,0.00,WeatherDisplay:10.37,2013-01-19 01:34:00,
2013-01-18 20:39:00,26.1,13.7,30.23,SSE,155,1.1,1.1,59,0.00,,,0.00,WeatherDisplay:10.37,2013-01-19 01:39:00,
2013-01-18 20:44:00,26.1,13.7,30.23,ESE,113,3.0,3.0,59,0.00,,,0.00,WeatherDisplay:10.37,2013-01-19 01:44:00,
2013-01-18 20:49:00,26.2,13.8,30.22,ESE,115,2.3,2.3,59,0.00,,,0.00,WeatherDisplay:10.37,2013-01-19 01:49:00,
2013-01-18 20:54:00,26.3,13.9,30.21,ESE,105,6.9,6.9,59,0.00,,,0.00,WeatherDisplay:10.37,2013-01-19 01:54:00,
2013-01-18 20:59:00,26.4,14.4,30.21,SE,134,3.5,3.5,60,0.00,,,0.00,WeatherDisplay:10.37,2013-01-19 01:59:00,
2013-01-18 21:04:00,26.4,14.4,30.20,SE,131,5.8,5.8,60,0.00,,,0.00,WeatherDisplay:10.37,2013-01-19 02:04:00,
2013-01-18 21:09:00,26.4,14.4,30.20,SSE,155,3.5,3.5,60,0.00,,,0.00,WeatherDisplay:10.37,2013-01-19 02:09:00,
2013-01-18 21:14:00,26.5,14.1,30.19,SSW,207,4.6,4.6,59,0.00,,,0.00,WeatherDisplay:10.37,2013-01-19 02:14:00,
2013-01-18 21:19:00,26.6,14.6,30.19,SSE,162,3.5,3.5,60,0.00,,,0.00,WeatherDisplay:10.37,2013-01-19 02:19:00,
2013-01-18 21:24:00,26.6,13.8,30.18,SSW,193,4.0,4.0,58,0.00,,,0.00,WeatherDisplay:10.37,2013-01-19 02:24:00,
2013-01-18 21:29:00,26.6,14.2,30.18,ESE,119,2.3,2.3,59,0.00,,,0.00,WeatherDisplay:10.37,2013-01-19 02:29:00,
2013-01-18 21:34:00,26.6,14.2,30.18,SW,221,2.3,2.3,59,0.00,,,0.00,WeatherDisplay:10.37,2013-01-19 02:34:00,
2013-01-18 21:39:00,26.5,14.5,30.17,SSW,198,5.8,5.8,60,0.00,,,0.00,WeatherDisplay:10.37,2013-01-19 02:39:00,
2013-01-18 21:44:00,26.5,14.1,30.17,ESE,113,4.6,4.6,59,0.00,,,0.00,WeatherDisplay:10.37,2013-01-19 02:44:00,
2013-01-18 21:49:00,26.5,14.1,30.16,SW,217,8.0,8.0,59,0.00,,,0.00,WeatherDisplay:10.37,2013-01-19 02:49:00,
2013-01-18 21:54:00,26.5,14.5,30.15,SSE,162,4.6,4.6,60,0.00,,,0.00,WeatherDisplay:10.37,2013-01-19 02:54:00,
2013-01-18 21:59:00,26.4,14.4,30.15,SSE,161,2.3,2.3,60,0.00,,,0.00,WeatherDisplay:10.37,2013-01-19 02:59:00,
2013-01-18 22:04:00,26.5,14.1,30.15,SSW,203,3.5,3.5,59,0.00,,,0.00,WeatherDisplay:10.37,2013-01-19 03:04:00,
2013-01-18 22:09:00,26.5,14.9,30.15,South,189,4.0,4.0,61,0.00,,,0.00,WeatherDisplay:10.37,2013-01-19 03:09:00,
2013-01-18 22:14:00,26.6,14.6,30.14,SSE,150,6.9,6.9,60,0.00,,,0.00,WeatherDisplay:10.37,2013-01-19 03:14:00,
2013-01-18 22:19:00,26.9,14.9,30.14,SE,124,3.5,3.5,60,0.00,,,0.00,WeatherDisplay:10.37,2013-01-19 03:19:00,
2013-01-18 22:24:00,27.0,15.3,30.14,SSE,162,4.6,4.6,61,0.00,,,0.00,WeatherDisplay:10.37,2013-01-19 03:24:00,
2013-01-18 22:29:00,27.2,15.1,30.13,SW,235,1.1,1.1,60,0.00,,,0.00,WeatherDisplay:10.37,2013-01-19 03:29:00,
2013-01-18 22:34:00,27.4,15.3,30.13,SE,143,5.8,5.8,60,0.00,,,0.00,WeatherDisplay:10.37,2013-01-19 03:34:00,
2013-01-18 22:39:00,27.5,15.8,30.13,SSE,152,2.3,2.3,61,0.00,,,0.00,WeatherDisplay:10.37,2013-01-19 03:39:00,
2013-01-18 22:45:00,27.6,15.9,30.12,South,191,4.6,4.6,61,0.00,,,0.00,WeatherDisplay:10.37,2013-01-19 03:45:00,
2013-01-18 22:50:00,27.8,16.1,30.13,SSE,162,5.0,5.0,61,0.00,,,0.00,WeatherDisplay:10.37,2013-01-19 03:50:00,
2013-01-18 22:55:00,27.9,16.6,30.13,South,180,2.3,2.3,62,0.00,,,0.00,WeatherDisplay:10.37,2013-01-19 03:55:00,
2013-01-18 23:00:00,28.0,15.5,30.13,South,191,2.3,2.3,59,0.00,,,0.00,WeatherDisplay:10.37,2013-01-19 04:00:00,
2013-01-18 23:05:00,28.1,16.7,30.12,SSW,201,2.3,2.3,62,0.00,,,0.00,WeatherDisplay:10.37,2013-01-19 04:05:00,
2013-01-18 23:10:00,28.2,16.8,30.12,South,178,2.3,2.3,62,0.00,,,0.00,WeatherDisplay:10.37,2013-01-19 04:10:00,
2013-01-18 23:15:00,28.1,16.7,30.12,South,180,3.5,3.5,62,0.00,,,0.00,WeatherDisplay:10.37,2013-01-19 04:15:00,
2013-01-18 23:20:00,28.2,16.5,30.13,SSE,158,2.3,2.3,61,0.00,,,0.00,WeatherDisplay:10.37,2013-01-19 04:20:00,
2013-01-18 23:25:00,28.4,17.0,30.12,SSE,150,1.1,1.1,62,0.00,,,0.00,WeatherDisplay:10.37,2013-01-19 04:25:00,
2013-01-18 23:30:00,28.5,16.4,30.12,SSE,157,3.5,3.5,60,0.00,,,0.00,WeatherDisplay:10.37,2013-01-19 04:30:00,
2013-01-18 23:35:00,28.6,16.5,30.12,South,181,2.3,2.3,60,0.00,,,0.00,WeatherDisplay:10.37,2013-01-19 04:35:00,
2013-01-18 23:40:00,28.7,16.9,30.11,SSE,155,3.5,3.5,61,0.00,,,0.00,WeatherDisplay:10.37,2013-01-19 04:40:00,
2013-01-18 23:45:00,28.7,17.3,30.10,SSW,197,3.0,3.0,62,0.00,,,0.00,WeatherDisplay:10.37,2013-01-19 04:45:00,
2013-01-18 23:50:00,28.8,17.0,30.10,SE,142,2.3,2.3,61,0.00,,,0.00,WeatherDisplay:10.37,2013-01-19 04:50:00,
2013-01-18 23:55:00,28.8,17.4,30.10,SE,143,2.3,2.3,62,0.00,,,0.00,WeatherDisplay:10.37,2013-01-19 04:55:00,